FENGYUN 1C DEB, 37447

Orbit data source: Space-Track

FENGYUN 1C DEB, 37447 is space debris in SSO originally from a launch on Mon, 10 May 1999 UTC launched from the Taiyaun Space Center, China (TSC). Fengyun 1C debris stems from the Chinese weather satellite Fengyun-1C, which was intentionally destroyed by a Chinese anti-satellite missile in 2007. This event dramatically increased the amount of space debris, with thousands of trackable fragments posing hazards to satellites and human spaceflight. The Fengyun 1C debris cloud has become a focal point in discussions about space sustainability and the need for international regulations to prevent the creation of new debris.

Loading next visibility...
Identifier
37447, 1999-025EHR
Orbit
SSO
Country
Flag of CNCN / PRC
Related business
Manufacturer
Unknown
Mission
Spacecraft
Bus & Motor
Unknown
Mass
Unknown
Launch date (UTC)
1999-05-10 (27 years ago)
Launch vehicle
Unknown
Launch site
Taiyaun Space Center, China (TSC)
Object type
Payload
Rocket body
Debris
Shape & HBR
Unknown shape, 0.1 m
Radar Cross Section
Small (<0.1 m²)

Expand to show TLE details & history
Last TLE update: 1 week ago

TLE from 1 week ago
0 FENGYUN 1C DEB
1 37447U 99025EHR 26244.39087277  .00000797  00000-0  40103-3 0  9995
2 37447  98.7683 306.3454 0038608 196.6066 163.3848 14.18875537671840
Epoch: 2026-09-01T09:22Z
TLE epoch observation values (Epoch: 2026-09-01T09:22:51.407Z)
Latitude
-0°
Longitude
-174.92723°
Altitude
858.747 km
Speed
7.409 km/s
True Right ascension
20h 25m 22s
True Declination
0° 00' 00"
Sunlit
Object was in full shadow at epoch
Visualization orbit readout
Latitude
Unknown
Longitude
Unknown
Altitude
Unknown
Speed
Unknown
Apparent Right ascension
Unknown
Apparent Declination
Unknown
Sunlit
N/A
Visualization observer readout
Local Sidereal Time
07:33:06
Azimuth
Unknown
Elevation
Unknown
Doppler factor
Unknown
Orbital elements
Apogee altitude
854.136 km
Perigee altitude
798.506 km
Semi-major axis
7,204.458 km
Eccentricity
0.00386
Inclination
98.7683°
RAAN
306.3454°
Arg. of periapsis
196.6066°
True anomaly
163.51072°
Mean anomaly
163.3848°
Eccentric anomaly
163.44782°
Mean motion
3.54929 °/min
Orbital period
101.43 mins
BSTAR
0.00040103
Loading maneuver chart data...
Computing Atmospheric mass density...

Documentation

Showing up to 5 results
|